"read_dt","SO2 (ppb)","flags","PMT voltage (V)","lamp voltage (V)","lamp intensity (Hz)","internal temp (C)","react chamber temp (C)","sample flow (l/min)","pres (mmHg)","SO2 bkg (ppb)","SO2 coefficient"
2017-03-12 00:00:00,1733E-3,5C000400,-0724,0839,12056,027.8,045.5,0.222,752.2,01.17,0.508
2017-03-12 00:01:00,1770E-3,5C000400,-0724,0838,12081,027.8,045.4,0.222,752.3,01.17,0.508
2017-03-12 00:02:00,1691E-3,5C000400,-0724,0839,12050,027.8,045.4,0.222,752.3,01.17,0.508
2017-03-12 00:03:00,1626E-3,5C000400,-0724,0839,12035,027.8,045.4,0.222,752.1,01.17,0.508
2017-03-12 00:04:00,1876E-3,5C000400,-0724,0838,12042,027.8,045.4,0.222,752.4,01.17,0.508
2017-03-12 00:05:00,1751E-3,5C000400,-0724,0838,11999,027.8,045.5,0.222,752.3,01.17,0.508
2017-03-12 00:06:00,1758E-3,5C000400,-0724,0839,12043,027.8,045.4,0.222,752.3,01.17,0.508
2017-03-12 00:07:00,1744E-3,5C000400,-0724,0839,11969,027.8,045.4,0.222,752.4,01.17,0.508
2017-03-12 00:08:00,1879E-3,5C000400,-0724,0839,11954,027.8,045.5,0.222,752.4,01.17,0.508
2017-03-12 00:09:00,1758E-3,5C000400,-0724,0838,12080,027.8,045.4,0.222,752.5,01.17,0.508
2017-03-12 00:10:00,1710E-3,5C000400,-0724,0839,12027,027.8,045.4,0.222,752.4,01.17,0.508
2017-03-12 00:11:00,1774E-3,5C000400,-0724,0839,12070,027.8,045.4,0.222,752.4,01.17,0.508
2017-03-12 00:12:00,1697E-3,5C000400,-0724,0839,11975,027.8,045.4,0.222,752.4,01.17,0.508
2017-03-12 00:13:00,1635E-3,5C000400,-0724,0840,12103,027.8,045.4,0.222,752.4,01.17,0.508
2017-03-12 00:14:00,1771E-3,5C000400,-0724,0839,12100,027.8,045.4,0.222,752.4,01.17,0.508
2017-03-12 00:15:00,1825E-3,5C000400,-0724,0839,12015,027.8,045.4,0.222,752.5,01.17,0.508
2017-03-12 00:16:00,1820E-3,5C000400,-0724,0839,11977,027.8,045.4,0.222,752.5,01.17,0.508
2017-03-12 00:17:00,1758E-3,5C000400,-0724,0839,12060,027.8,045.5,0.222,752.5,01.17,0.508
2017-03-12 00:18:00,1804E-3,5C000400,-0724,0839,12028,027.8,045.4,0.222,752.5,01.17,0.508
2017-03-12 00:19:00,1737E-3,5C000400,-0724,0838,12093,027.8,045.4,0.222,752.5,01.17,0.508
2017-03-12 00:20:00,1704E-3,5C000400,-0724,0838,12095,027.8,045.4,0.222,752.5,01.17,0.508
2017-03-12 00:21:00,1832E-3,5C000400,-0724,0840,12009,027.8,045.4,0.222,752.5,01.17,0.508
2017-03-12 00:22:00,1720E-3,5C000400,-0724,0839,12016,027.8,045.4,0.222,752.5,01.17,0.508
2017-03-12 00:23:00,1829E-3,5C000400,-0724,0838,12090,027.8,045.4,0.222,752.5,01.17,0.508
2017-03-12 00:24:00,1739E-3,5C000400,-0724,0838,11929,027.8,045.4,0.222,752.6,01.17,0.508
2017-03-12 00:25:00,1900E-3,5C000400,-0724,0839,12169,027.8,045.4,0.222,752.6,01.17,0.508
2017-03-12 00:26:00,1750E-3,5C000400,-0724,0838,12128,027.8,045.4,0.222,752.5,01.17,0.508
2017-03-12 00:27:00,1721E-3,5C000400,-0724,0838,12102,027.8,045.4,0.222,752.5,01.17,0.508
2017-03-12 00:28:00,1787E-3,5C000400,-0724,0838,12019,027.8,045.4,0.222,752.6,01.17,0.508
2017-03-12 00:29:00,1636E-3,5C000400,-0724,0839,12106,027.8,045.4,0.222,752.6,01.17,0.508
2017-03-12 00:30:00,1729E-3,5C000400,-0724,0838,11994,027.8,045.4,0.222,752.5,01.17,0.508
2017-03-12 00:31:00,1835E-3,5C000400,-0724,0839,12024,027.8,045.4,0.222,752.5,01.17,0.508
2017-03-12 00:32:00,1883E-3,5C000400,-0724,0838,11937,027.8,045.4,0.222,752.6,01.17,0.508
2017-03-12 00:33:00,1836E-3,5C000400,-0724,0839,11971,027.8,045.5,0.222,752.5,01.17,0.508
2017-03-12 00:34:00,1811E-3,5C000400,-0724,0839,12141,027.8,045.4,0.222,752.5,01.17,0.508
2017-03-12 00:35:00,1811E-3,5C000400,-0724,0839,11998,027.9,045.4,0.222,752.5,01.17,0.508
2017-03-12 00:36:00,1774E-3,5C000400,-0724,0838,12157,027.8,045.4,0.222,752.5,01.17,0.508
2017-03-12 00:37:00,1764E-3,5C000400,-0724,0838,12018,027.9,045.4,0.222,752.5,01.17,0.508
2017-03-12 00:38:00,1803E-3,5C000400,-0724,0838,11968,027.9,045.5,0.222,752.5,01.17,0.508
2017-03-12 00:39:00,1848E-3,5C000400,-0724,0838,11975,027.9,045.4,0.222,752.5,01.17,0.508
2017-03-12 00:40:00,1680E-3,5C000400,-0724,0839,12152,027.9,045.4,0.222,752.6,01.17,0.508
2017-03-12 00:41:00,1781E-3,5C000400,-0724,0839,12009,027.9,045.4,0.222,752.6,01.17,0.508
2017-03-12 00:42:00,1586E-3,5C000400,-0724,0838,12076,027.9,045.4,0.222,752.6,01.17,0.508
2017-03-12 00:43:00,1736E-3,5C000400,-0724,0838,12037,027.9,045.4,0.222,752.7,01.17,0.508
2017-03-12 00:44:00,1909E-3,5C000400,-0724,0839,12048,027.9,045.4,0.222,752.6,01.17,0.508
2017-03-12 00:45:00,1737E-3,5C000400,-0724,0839,12124,027.9,045.4,0.221,752.6,01.17,0.508
2017-03-12 00:46:00,1689E-3,5C000400,-0724,0839,12148,027.9,045.4,0.222,752.6,01.17,0.508
2017-03-12 00:47:00,1612E-3,5C000400,-0724,0839,12012,027.9,045.4,0.222,752.6,01.17,0.508
2017-03-12 00:48:00,1624E-3,5C000400,-0724,0839,11909,027.9,045.4,0.222,752.6,01.17,0.508
2017-03-12 00:49:00,1762E-3,5C000400,-0724,0839,12065,027.9,045.4,0.222,752.6,01.17,0.508
2017-03-12 00:50:00,1727E-3,5C000400,-0724,0839,12108,027.9,045.4,0.222,752.7,01.17,0.508
2017-03-12 00:51:00,1674E-3,5C000400,-0724,0839,12060,027.9,045.4,0.222,752.7,01.17,0.508
2017-03-12 00:52:00,1740E-3,5C000400,-0724,0839,11965,027.9,045.5,0.221,752.7,01.17,0.508
2017-03-12 00:53:00,1965E-3,5C000400,-0724,0839,12050,028.0,045.5,0.222,752.7,01.17,0.508
2017-03-12 00:54:00,1735E-3,5C000400,-0724,0839,12072,028.0,045.4,0.222,752.7,01.17,0.508
2017-03-12 00:55:00,1756E-3,5C000400,-0724,0839,11998,028.0,045.4,0.222,752.7,01.17,0.508
2017-03-12 00:56:00,1756E-3,5C000400,-0724,0839,12185,028.0,045.4,0.222,752.7,01.17,0.508
2017-03-12 00:57:00,1714E-3,5C000400,-0724,0838,11940,028.0,045.4,0.222,752.7,01.17,0.508
2017-03-12 00:58:00,1904E-3,5C000400,-0724,0839,12156,028.0,045.4,0.222,752.8,01.17,0.508
2017-03-12 00:59:00,1822E-3,5C000400,-0724,0839,12103,028.0,045.4,0.221,752.8,01.17,0.508
2017-03-12 01:00:00,1737E-3,5C000400,-0724,0839,12181,028.0,045.4,0.222,752.7,01.17,0.508
2017-03-12 01:01:00,1770E-3,5C000400,-0724,0839,12122,028.0,045.4,0.222,752.8,01.17,0.508
2017-03-12 01:02:00,1744E-3,5C000400,-0724,0838,12072,028.0,045.4,0.222,752.7,01.17,0.508
2017-03-12 01:03:00,1707E-3,5C000400,-0724,0839,12066,028.0,045.4,0.222,752.7,01.17,0.508
2017-03-12 01:04:00,1709E-3,5C000400,-0724,0839,12130,028.0,045.4,0.221,752.7,01.17,0.508
2017-03-12 01:05:00,1600E-3,5C000400,-0724,0839,12021,028.0,045.4,0.221,752.7,01.17,0.508
2017-03-12 01:06:00,1704E-3,5C000400,-0724,0839,11971,028.1,045.4,0.221,752.8,01.17,0.508
2017-03-12 01:07:00,1756E-3,5C000400,-0724,0839,12085,028.1,045.4,0.222,752.7,01.17,0.508
2017-03-12 01:08:00,1874E-3,5C000400,-0724,0839,12052,028.1,045.4,0.222,752.6,01.17,0.508
2017-03-12 01:09:00,1661E-3,5C000400,-0724,0839,11982,028.1,045.4,0.222,752.8,01.17,0.508
2017-03-12 01:10:00,1802E-3,5C000400,-0724,0838,11962,028.1,045.4,0.222,752.7,01.17,0.508
2017-03-12 01:11:00,1836E-3,5C000400,-0724,0839,11967,028.1,045.4,0.221,752.7,01.17,0.508
2017-03-12 01:12:00,1850E-3,5C000400,-0724,0838,11997,028.1,045.4,0.221,752.8,01.17,0.508
2017-03-12 01:13:00,1719E-3,5C000400,-0724,0839,12008,028.1,045.4,0.221,752.7,01.17,0.508
2017-03-12 01:14:00,1697E-3,5C000400,-0724,0839,12113,028.1,045.4,0.221,752.7,01.17,0.508
2017-03-12 01:15:00,1777E-3,5C000400,-0724,0839,12116,028.1,045.5,0.221,752.7,01.17,0.508
2017-03-12 01:16:00,1653E-3,5C000400,-0724,0839,12125,028.1,045.4,0.222,752.7,01.17,0.508
2017-03-12 01:17:00,1747E-3,5C000400,-0724,0840,12069,028.1,045.5,0.221,752.7,01.17,0.508
2017-03-12 01:18:00,1891E-3,5C000400,-0724,0839,12049,028.1,045.4,0.221,752.7,01.17,0.508
2017-03-12 01:19:00,1732E-3,5C000400,-0724,0839,12028,028.2,045.4,0.221,752.7,01.17,0.508
2017-03-12 01:20:00,1744E-3,5C000400,-0724,0839,12152,028.2,045.4,0.221,752.7,01.17,0.508
2017-03-12 01:21:00,1712E-3,5C000400,-0724,0838,12140,028.2,045.5,0.221,752.8,01.17,0.508
2017-03-12 01:22:00,1693E-3,5C000400,-0724,0839,12058,028.2,045.4,0.221,752.7,01.17,0.508
2017-03-12 01:23:00,1750E-3,5C000400,-0724,0839,11961,028.2,045.4,0.221,752.7,01.17,0.508
2017-03-12 01:24:00,1672E-3,5C000400,-0724,0839,11987,028.2,045.5,0.221,752.7,01.17,0.508
2017-03-12 01:25:00,1788E-3,5C000400,-0724,0838,12077,028.2,045.5,0.221,752.7,01.17,0.508
2017-03-12 01:26:00,1748E-3,5C000400,-0724,0839,12072,028.2,045.4,0.221,752.7,01.17,0.508
2017-03-12 01:27:00,1770E-3,5C000400,-0724,0838,11979,028.2,045.4,0.221,752.7,01.17,0.508
2017-03-12 01:28:00,1590E-3,5C000400,-0724,0839,12028,028.2,045.4,0.221,752.7,01.17,0.508
2017-03-12 01:29:00,1711E-3,5C000400,-0724,0839,12038,028.2,045.4,0.221,752.6,01.17,0.508
2017-03-12 01:30:00,1660E-3,5C000400,-0724,0838,12013,028.2,045.4,0.221,752.6,01.17,0.508
2017-03-12 01:31:00,1760E-3,5C000400,-0724,0839,11965,028.2,045.5,0.221,752.6,01.17,0.508
2017-03-12 01:32:00,1615E-3,5C000400,-0724,0840,12037,028.3,045.5,0.221,752.6,01.17,0.508
2017-03-12 01:33:00,1735E-3,5C000400,-0724,0839,11906,028.3,045.5,0.221,752.5,01.17,0.508
2017-03-12 01:34:00,1786E-3,5C000400,-0724,0839,11977,028.3,045.4,0.221,752.5,01.17,0.508
2017-03-12 01:35:00,1706E-3,5C000400,-0724,0839,12033,028.3,045.4,0.221,752.5,01.17,0.508
2017-03-12 01:36:00,1800E-3,5C000400,-0724,0838,12075,028.3,045.5,0.221,752.5,01.17,0.508
2017-03-12 01:37:00,1834E-3,5C000400,-0724,0839,11874,028.3,045.4,0.221,752.5,01.17,0.508
2017-03-12 01:38:00,1896E-3,5C000400,-0724,0839,12154,028.3,045.4,0.221,752.5,01.17,0.508
2017-03-12 01:39:00,1688E-3,5C000400,-0724,0839,12084,028.3,045.4,0.221,752.5,01.17,0.508
2017-03-12 01:40:00,1782E-3,5C000400,-0724,0840,12055,028.3,045.5,0.221,752.5,01.17,0.508
2017-03-12 01:41:00,1848E-3,5C000400,-0724,0838,12089,028.3,045.5,0.221,752.5,01.17,0.508
2017-03-12 01:42:00,1870E-3,5C000400,-0724,0839,12050,028.3,045.5,0.221,752.5,01.17,0.508
2017-03-12 01:43:00,1632E-3,5C000400,-0724,0839,12129,028.3,045.4,0.221,752.5,01.17,0.508
2017-03-12 01:44:00,1691E-3,5C000400,-0724,0839,12031,028.3,045.4,0.221,752.5,01.17,0.508
2017-03-12 01:45:00,1759E-3,5C000400,-0724,0839,12152,028.3,045.5,0.221,752.5,01.17,0.508
2017-03-12 01:46:00,1704E-3,5C000400,-0724,0839,12105,028.3,045.4,0.220,752.5,01.17,0.508
2017-03-12 01:47:00,1710E-3,5C000400,-0724,0839,12028,028.4,045.5,0.221,752.5,01.17,0.508
2017-03-12 01:48:00,1776E-3,5C000400,-0724,0839,11959,028.4,045.5,0.221,752.5,01.17,0.508
2017-03-12 01:49:00,1707E-3,5C000400,-0724,0839,12135,028.4,045.4,0.221,752.5,01.17,0.508
2017-03-12 01:50:00,1782E-3,5C000400,-0724,0839,11956,028.4,045.4,0.221,752.5,01.17,0.508
2017-03-12 01:51:00,1738E-3,5C000400,-0724,0839,12070,028.4,045.5,0.221,752.5,01.17,0.508
2017-03-12 01:52:00,1743E-3,5C000400,-0724,0840,11955,028.4,045.5,0.221,752.5,01.17,0.508
2017-03-12 01:53:00,1753E-3,5C000400,-0724,0839,12157,028.4,045.4,0.221,752.5,01.17,0.508
2017-03-12 01:54:00,1786E-3,5C000400,-0724,0839,12026,028.4,045.4,0.220,752.5,01.17,0.508
2017-03-12 01:55:00,1723E-3,5C000400,-0724,0839,12046,028.4,045.5,0.220,752.5,01.17,0.508
2017-03-12 01:56:00,1699E-3,5C000400,-0724,0838,12275,028.4,045.5,0.221,752.5,01.17,0.508
2017-03-12 01:57:00,1795E-3,5C000400,-0724,0839,11940,028.4,045.5,0.221,752.5,01.17,0.508
2017-03-12 01:58:00,1704E-3,5C000400,-0724,0839,12005,028.4,045.5,0.221,752.5,01.17,0.508
2017-03-12 01:59:00,1714E-3,5C000400,-0724,0838,12123,028.4,045.5,0.221,752.5,01.17,0.508
2017-03-12 02:00:00,1792E-3,5C000400,-0724,0839,12019,028.4,045.5,0.221,752.5,01.17,0.508
2017-03-12 02:01:00,1771E-3,5C000400,-0724,0839,11977,028.5,045.5,0.221,752.5,01.17,0.508
2017-03-12 02:02:00,1775E-3,5C000400,-0724,0839,12002,028.5,045.4,0.221,752.4,01.17,0.508
2017-03-12 02:03:00,1835E-3,5C000400,-0724,0839,11991,028.5,045.4,0.221,752.5,01.17,0.508
2017-03-12 02:04:00,1781E-3,5C000400,-0724,0839,12054,028.5,045.5,0.220,752.5,01.17,0.508
2017-03-12 02:05:00,1704E-3,5C000400,-0724,0840,12035,028.5,045.5,0.220,752.5,01.17,0.508
2017-03-12 02:06:00,1792E-3,5C000400,-0724,0838,11997,028.5,045.5,0.220,752.5,01.17,0.508
2017-03-12 02:07:00,1743E-3,5C000400,-0724,0839,12003,028.5,045.5,0.221,752.4,01.17,0.508
2017-03-12 02:08:00,1801E-3,5C000400,-0724,0839,12086,028.5,045.5,0.221,752.4,01.17,0.508
2017-03-12 02:09:00,1754E-3,5C000400,-0724,0839,12123,028.5,045.5,0.221,752.5,01.17,0.508
2017-03-12 02:10:00,1746E-3,5C000400,-0724,0839,12148,028.5,045.5,0.221,752.4,01.17,0.508
2017-03-12 02:11:00,1853E-3,5C000400,-0724,0839,12042,028.5,045.5,0.221,752.5,01.17,0.508
2017-03-12 02:12:00,1652E-3,5C000400,-0724,0839,11989,028.5,045.5,0.220,752.3,01.17,0.508
2017-03-12 02:13:00,1691E-3,5C000400,-0724,0839,11984,028.5,045.5,0.220,752.3,01.17,0.508
2017-03-12 02:14:00,1759E-3,5C000400,-0724,0839,12015,028.5,045.5,0.220,752.4,01.17,0.508
2017-03-12 02:15:00,1798E-3,5C000400,-0724,0839,12045,028.6,045.5,0.220,752.5,01.17,0.508
2017-03-12 02:16:00,1633E-3,5C000400,-0724,0839,12031,028.5,045.4,0.220,752.4,01.17,0.508
2017-03-12 02:17:00,1728E-3,5C000400,-0724,0839,12089,028.6,045.5,0.220,752.4,01.17,0.508
2017-03-12 02:18:00,1778E-3,5C000400,-0724,0839,12196,028.6,045.4,0.220,752.3,01.17,0.508
2017-03-12 02:19:00,1703E-3,5C000400,-0724,0839,11973,028.6,045.5,0.221,752.4,01.17,0.508
2017-03-12 02:20:00,1659E-3,5C000400,-0724,0838,11959,028.6,045.5,0.221,752.3,01.17,0.508
2017-03-12 02:21:00,1754E-3,5C000400,-0724,0839,11911,028.6,045.5,0.221,752.4,01.17,0.508
2017-03-12 02:22:00,1840E-3,5C000400,-0724,0839,12054,028.6,045.5,0.221,752.3,01.17,0.508
2017-03-12 02:23:00,1857E-3,5C000400,-0724,0839,11927,028.6,045.5,0.220,752.3,01.17,0.508
2017-03-12 02:24:00,1827E-3,5C000400,-0724,0840,12079,028.6,045.5,0.220,752.3,01.17,0.508
2017-03-12 02:25:00,1788E-3,5C000400,-0724,0839,12056,028.6,045.5,0.220,752.3,01.17,0.508
2017-03-12 02:26:00,1802E-3,5C000400,-0724,0838,12122,028.6,045.5,0.220,752.3,01.17,0.508
2017-03-12 02:27:00,1712E-3,5C000400,-0724,0839,12095,028.6,045.5,0.220,752.3,01.17,0.508
2017-03-12 02:28:00,1749E-3,5C000400,-0724,0838,12107,028.6,045.5,0.220,752.3,01.17,0.508
2017-03-12 02:29:00,1823E-3,5C000400,-0724,0839,12015,028.6,045.5,0.220,752.3,01.17,0.508
2017-03-12 02:30:00,1619E-3,5C000400,-0724,0839,12092,028.6,045.5,0.220,752.3,01.17,0.508
2017-03-12 02:31:00,1749E-3,5C000400,-0724,0839,12077,028.6,045.4,0.220,752.3,01.17,0.508
2017-03-12 02:32:00,1702E-3,5C000400,-0724,0839,12130,028.6,045.4,0.220,752.4,01.17,0.508
2017-03-12 02:33:00,1805E-3,5C000400,-0724,0838,11950,028.6,045.5,0.220,752.4,01.17,0.508
2017-03-12 02:34:00,1720E-3,5C000400,-0724,0839,12037,028.7,045.5,0.220,752.3,01.17,0.508
2017-03-12 02:35:00,1739E-3,5C000400,-0724,0839,12023,028.6,045.5,0.221,752.3,01.17,0.508
2017-03-12 02:36:00,1660E-3,5C000400,-0724,0839,12021,028.7,045.5,0.220,752.3,01.17,0.508
2017-03-12 02:37:00,1736E-3,5C000400,-0724,0840,11936,028.7,045.5,0.220,752.3,01.17,0.508
2017-03-12 02:38:00,1819E-3,5C000400,-0724,0839,12001,028.7,045.5,0.220,752.3,01.17,0.508
2017-03-12 02:39:00,1736E-3,5C000400,-0724,0839,12002,028.7,045.4,0.220,752.4,01.17,0.508
2017-03-12 02:40:00,1728E-3,5C000400,-0724,0839,11993,028.7,045.5,0.220,752.4,01.17,0.508
2017-03-12 02:41:00,1757E-3,5C000400,-0724,0839,11986,028.7,045.5,0.220,752.4,01.17,0.508
2017-03-12 02:42:00,1906E-3,5C000400,-0724,0839,11979,028.7,045.5,0.220,752.4,01.17,0.508
2017-03-12 02:43:00,1651E-3,5C000400,-0724,0839,12025,028.7,045.5,0.220,752.4,01.17,0.508
2017-03-12 02:44:00,1621E-3,5C000400,-0724,0838,12126,028.7,045.5,0.220,752.4,01.17,0.508
2017-03-12 02:45:00,1674E-3,5C000400,-0724,0840,12122,028.7,045.5,0.220,752.4,01.17,0.508
2017-03-12 02:46:00,1651E-3,5C000400,-0724,0838,12076,028.7,045.5,0.220,752.4,01.17,0.508
2017-03-12 02:47:00,1792E-3,5C000400,-0724,0839,12006,028.7,045.5,0.220,752.5,01.17,0.508
2017-03-12 02:48:00,1666E-3,5C000400,-0724,0839,12015,028.7,045.5,0.220,752.5,01.17,0.508
2017-03-12 02:49:00,1727E-3,5C000400,-0724,0839,12005,028.7,045.4,0.220,752.5,01.17,0.508
2017-03-12 02:50:00,1779E-3,5C000400,-0724,0839,11968,028.8,045.4,0.220,752.4,01.17,0.508
2017-03-12 02:51:00,1596E-3,5C000400,-0724,0838,12010,028.8,045.4,0.220,752.5,01.17,0.508
2017-03-12 02:52:00,1718E-3,5C000400,-0724,0839,12030,028.8,045.5,0.220,752.5,01.17,0.508
2017-03-12 02:53:00,1900E-3,5C000400,-0724,0839,12166,028.8,045.5,0.220,752.5,01.17,0.508
2017-03-12 02:54:00,1797E-3,5C000400,-0724,0839,11995,028.8,045.5,0.220,752.3,01.17,0.508
2017-03-12 02:55:00,1710E-3,5C000400,-0724,0839,11861,028.8,045.5,0.220,752.5,01.17,0.508
2017-03-12 02:56:00,1809E-3,5C000400,-0724,0839,12098,028.8,045.5,0.220,752.5,01.17,0.508
2017-03-12 02:57:00,1725E-3,5C000400,-0724,0840,12088,028.8,045.5,0.220,752.4,01.17,0.508
2017-03-12 02:58:00,1769E-3,5C000400,-0724,0839,12067,028.8,045.5,0.220,752.5,01.17,0.508
2017-03-12 02:59:00,1678E-3,5C000400,-0724,0839,11991,028.8,045.5,0.220,752.5,01.17,0.508
2017-03-12 03:00:00,1771E-3,5C000400,-0724,0839,12035,028.8,045.5,0.220,752.5,01.17,0.508
2017-03-12 03:01:00,1768E-3,5C000400,-0724,0839,12055,028.8,045.5,0.220,752.5,01.17,0.508
2017-03-12 03:02:00,1777E-3,5C000400,-0724,0839,12008,028.8,045.5,0.220,752.5,01.17,0.508
2017-03-12 03:03:00,1698E-3,5C000400,-0724,0838,12074,028.8,045.5,0.219,752.5,01.17,0.508
2017-03-12 03:04:00,1823E-3,5C000400,-0724,0838,12054,028.8,045.5,0.219,752.5,01.17,0.508
2017-03-12 03:05:00,1720E-3,5C000400,-0724,0839,12015,028.8,045.5,0.219,752.5,01.17,0.508
2017-03-12 03:06:00,1740E-3,5C000400,-0724,0839,11838,028.8,045.5,0.219,752.5,01.17,0.508
2017-03-12 03:07:00,1550E-3,5C000400,-0724,0839,12036,028.8,045.5,0.219,752.5,01.17,0.508
2017-03-12 03:08:00,1740E-3,5C000400,-0724,0838,11982,028.8,045.5,0.219,752.5,01.17,0.508
2017-03-12 03:09:00,1767E-3,5C000400,-0724,0838,12004,028.8,045.5,0.219,752.5,01.17,0.508
2017-03-12 03:10:00,1769E-3,5C000400,-0724,0839,12075,028.8,045.5,0.219,752.5,01.17,0.508
2017-03-12 03:11:00,1810E-3,5C000400,-0724,0839,12039,028.8,045.5,0.219,752.5,01.17,0.508
2017-03-12 03:12:00,1764E-3,5C000400,-0724,0839,11955,028.9,045.5,0.219,752.5,01.17,0.508
2017-03-12 03:13:00,1844E-3,5C000400,-0724,0839,12012,028.9,045.5,0.219,752.5,01.17,0.508
2017-03-12 03:14:00,1820E-3,5C000400,-0724,0840,12096,028.9,045.5,0.219,752.5,01.17,0.508
2017-03-12 03:15:00,1800E-3,5C000400,-0724,0839,12041,028.9,045.5,0.219,752.5,01.17,0.508
2017-03-12 03:16:00,1752E-3,5C000400,-0724,0840,12127,028.9,045.5,0.220,752.5,01.17,0.508
2017-03-12 03:17:00,1819E-3,5C000400,-0724,0839,12126,028.9,045.5,0.220,752.5,01.17,0.508
2017-03-12 03:18:00,1812E-3,5C000400,-0724,0839,12076,028.9,045.5,0.220,752.5,01.17,0.508
2017-03-12 03:19:00,1811E-3,5C000400,-0724,0839,12020,028.9,045.5,0.220,752.5,01.17,0.508
2017-03-12 03:20:00,1777E-3,5C000400,-0724,0839,12080,028.9,045.5,0.220,752.5,01.17,0.508
2017-03-12 03:21:00,1661E-3,5C000400,-0724,0839,12071,028.9,045.5,0.220,752.4,01.17,0.508
2017-03-12 03:22:00,1800E-3,5C000400,-0724,0839,11996,028.9,045.5,0.219,752.5,01.17,0.508
2017-03-12 03:23:00,1750E-3,5C000400,-0724,0839,11997,028.9,045.5,0.220,752.4,01.17,0.508
2017-03-12 03:24:00,1688E-3,5C000400,-0724,0839,12013,028.9,045.5,0.220,752.5,01.17,0.508
2017-03-12 03:25:00,1811E-3,5C000400,-0724,0839,12026,028.9,045.5,0.220,752.4,01.17,0.508
2017-03-12 03:26:00,1767E-3,5C000400,-0724,0838,11945,028.9,045.5,0.219,752.5,01.17,0.508
2017-03-12 03:27:00,1777E-3,5C000400,-0724,0839,11973,028.9,045.5,0.220,752.5,01.17,0.508
2017-03-12 03:28:00,1819E-3,5C000400,-0724,0838,12028,029.0,045.5,0.220,752.5,01.17,0.508
2017-03-12 03:29:00,1677E-3,5C000400,-0724,0839,11982,029.0,045.5,0.220,752.4,01.17,0.508
2017-03-12 03:30:00,1680E-3,5C000400,-0724,0839,11958,029.0,045.5,0.220,752.4,01.17,0.508
2017-03-12 03:31:00,1719E-3,5C000400,-0724,0839,11987,029.0,045.5,0.220,752.4,01.17,0.508
2017-03-12 03:32:00,1913E-3,5C000400,-0724,0839,12038,029.0,045.5,0.220,752.4,01.17,0.508
2017-03-12 03:33:00,1746E-3,5C000400,-0724,0840,12083,029.0,045.5,0.220,752.3,01.17,0.508
2017-03-12 03:34:00,1677E-3,5C000400,-0724,0839,12038,029.0,045.5,0.220,752.4,01.17,0.508
2017-03-12 03:35:00,1784E-3,5C000400,-0724,0839,12009,029.0,045.4,0.220,752.3,01.17,0.508
2017-03-12 03:36:00,1735E-3,5C000400,-0724,0839,11853,029.0,045.5,0.220,752.3,01.17,0.508
2017-03-12 03:37:00,1659E-3,5C000400,-0724,0840,12163,029.0,045.5,0.220,752.3,01.17,0.508
2017-03-12 03:38:00,1772E-3,5C000400,-0724,0839,11997,029.0,045.5,0.219,752.2,01.17,0.508
2017-03-12 03:39:00,1758E-3,5C000400,-0724,0839,11977,029.0,045.5,0.219,752.2,01.17,0.508
2017-03-12 03:40:00,1721E-3,5C000400,-0724,0839,12059,029.0,045.5,0.219,752.2,01.17,0.508
2017-03-12 03:41:00,1831E-3,5C000400,-0724,0839,12077,029.0,045.5,0.220,752.3,01.17,0.508
2017-03-12 03:42:00,1882E-3,5C000400,-0724,0839,11955,029.0,045.5,0.220,752.3,01.17,0.508
2017-03-12 03:43:00,1768E-3,5C000400,-0724,0839,12072,029.0,045.5,0.219,752.2,01.17,0.508
2017-03-12 03:44:00,1720E-3,5C000400,-0724,0840,12125,029.1,045.5,0.219,752.3,01.17,0.508
2017-03-12 03:45:00,1646E-3,5C000400,-0724,0839,12113,029.1,045.5,0.219,752.2,01.17,0.508
2017-03-12 03:46:00,1663E-3,5C000400,-0724,0839,12089,029.1,045.5,0.219,752.2,01.17,0.508
2017-03-12 03:47:00,1826E-3,5C000400,-0724,0840,12072,029.1,045.5,0.219,752.3,01.17,0.508
2017-03-12 03:48:00,1849E-3,5C000400,-0724,0839,11983,029.1,045.5,0.219,752.1,01.17,0.508
2017-03-12 03:49:00,1778E-3,5C000400,-0724,0840,12189,029.1,045.5,0.219,752.2,01.17,0.508
2017-03-12 03:50:00,1653E-3,5C000400,-0724,0840,12060,029.1,045.5,0.219,752.3,01.17,0.508
2017-03-12 03:51:00,1716E-3,5C000400,-0724,0839,12087,029.1,045.5,0.219,752.2,01.17,0.508
2017-03-12 03:52:00,1688E-3,5C000400,-0724,0839,11993,029.1,045.5,0.219,752.3,01.17,0.508
2017-03-12 03:53:00,1655E-3,5C000400,-0724,0838,12021,029.1,045.5,0.219,752.2,01.17,0.508
2017-03-12 03:54:00,1770E-3,5C000400,-0724,0839,11968,029.1,045.5,0.219,752.2,01.17,0.508
2017-03-12 03:55:00,1713E-3,5C000400,-0724,0839,12039,029.1,045.5,0.219,752.2,01.17,0.508
2017-03-12 03:56:00,1818E-3,5C000400,-0724,0839,12094,029.1,045.5,0.219,752.0,01.17,0.508
2017-03-12 03:57:00,1632E-3,5C000400,-0724,0839,12112,029.1,045.5,0.219,752.2,01.17,0.508
2017-03-12 03:58:00,1749E-3,5C000400,-0724,0840,11933,029.1,045.5,0.219,752.1,01.17,0.508
2017-03-12 03:59:00,1891E-3,5C000400,-0724,0839,12061,029.1,045.5,0.219,752.1,01.17,0.508
2017-03-12 04:00:00,1714E-3,5C000400,-0724,0838,11988,029.1,045.5,0.219,752.0,01.17,0.508
2017-03-12 04:01:00,1827E-3,5C000400,-0724,0839,11916,029.1,045.5,0.219,752.0,01.17,0.508
2017-03-12 04:02:00,1680E-3,5C000400,-0724,0839,12021,029.2,045.5,0.219,752.0,01.17,0.508
2017-03-12 04:03:00,1839E-3,5C000400,-0724,0840,12036,029.1,045.5,0.219,752.0,01.17,0.508
2017-03-12 04:04:00,1661E-3,5C000400,-0724,0840,11957,029.2,045.5,0.219,752.0,01.17,0.508
2017-03-12 04:05:00,1767E-3,5C000400,-0724,0839,11917,029.2,045.5,0.219,752.0,01.17,0.508
2017-03-12 04:06:00,1867E-3,5C000400,-0724,0840,11999,029.2,045.5,0.219,752.0,01.17,0.508
2017-03-12 04:07:00,1797E-3,5C000400,-0724,0839,12137,029.1,045.5,0.219,752.0,01.17,0.508
2017-03-12 04:08:00,1771E-3,5C000400,-0724,0839,11987,029.2,045.5,0.219,751.8,01.17,0.508
2017-03-12 04:09:00,1683E-3,5C000400,-0724,0839,12081,029.2,045.5,0.219,752.0,01.17,0.508
2017-03-12 04:10:00,1744E-3,5C000400,-0724,0839,12066,029.2,045.5,0.219,752.0,01.17,0.508
2017-03-12 04:11:00,1708E-3,5C000400,-0724,0839,12011,029.2,045.5,0.219,752.1,01.17,0.508
2017-03-12 04:12:00,1603E-3,5C000400,-0724,0839,12050,029.2,045.5,0.219,752.0,01.17,0.508
2017-03-12 04:13:00,1779E-3,5C000400,-0724,0840,12067,029.2,045.5,0.219,752.1,01.17,0.508
2017-03-12 04:14:00,1716E-3,5C000400,-0724,0839,12015,029.2,045.5,0.219,752.0,01.17,0.508
2017-03-12 04:15:00,1800E-3,5C000400,-0724,0839,11933,029.2,045.5,0.219,752.1,01.17,0.508
2017-03-12 04:16:00,1813E-3,5C000400,-0724,0840,12131,029.2,045.5,0.219,751.9,01.17,0.508
2017-03-12 04:17:00,1627E-3,5C000400,-0724,0839,12123,029.2,045.5,0.219,752.0,01.17,0.508
2017-03-12 04:18:00,1761E-3,5C000400,-0724,0839,12020,029.2,045.5,0.219,752.0,01.17,0.508
2017-03-12 04:19:00,1767E-3,5C000400,-0724,0838,12113,029.2,045.5,0.219,752.0,01.17,0.508
2017-03-12 04:20:00,1659E-3,5C000400,-0724,0839,12138,029.2,045.5,0.219,752.0,01.17,0.508